Hourly Data Report for October 10, 2015

All times are specified in Local Standard Time (LST). Add 1 hour to adjust for Daylight Saving Time where and when it is observed.

ARVIAT A
NUNAVUT

61°05'38.000" N
94°04'18.000" W
10.40 m
2300427
71174
YEK

Download Data

Hourly Data (October 2015)
Hourly Data Report for October 10, 2015
Temp Definition
°C
Dew Point Temp Definition
°C
Rel Hum Definition
%
Wind Dir Definition
10's deg

Wind Spd Definition
km/h
Visibility Definition
km
Stn Press Definition
kPa
Hmdx Definition


Wind Chill Definition


Weather Definition


TIME
00:00 Legend Double Dagger -5.7 -8.0 84 34 17 16.1 101.24   -12 LegendNANA
01:00 Legend Double Dagger -6.2 -8.5 84 1 13 16.1 101.19   -12 LegendNANA
02:00 Legend Double Dagger -5.9 -7.9 86 33 11 16.1 101.12   -11 LegendNANA
03:00 Legend Double Dagger -5.9 -7.7 87 33 11 16.1 101.11   -11 LegendNANA
04:00 Legend Double Dagger -5.2 -7.2 86 4 9 16.1 101.05   -9 LegendNANA
05:00 Legend Double Dagger -4.5 -7.1 82 7 15 16.1 100.99   -10 LegendNANA
06:00 Legend Double Dagger -4.2 -7.1 80 10 11 16.1 100.95   -9 LegendNANA
07:00 Legend Double Dagger -3.9 -6.5 82 13 13 16.1 100.88   -9 LegendNANA
08:00 Legend Double Dagger -3.5 -6.5 80 13 22 16.1 100.76   -10 LegendNANA
09:00 Legend Double Dagger -2.9 -6.4 77 11 18 16.1 100.71   -9 LegendNANA
10:00 Legend Double Dagger -2.1 -6.3 73 12 21 16.1 100.65   -8 LegendNANA
11:00 Legend Double Dagger -1.3 -5.8 72 13 26 16.1 100.54   -8 LegendNANA
12:00 Legend Double Dagger -0.9 -5.2 73 13 28 16.1 100.42   -7 LegendNANA
13:00 Legend Double Dagger -0.5 -5.3 70 13 35 16.1 100.29   -8 LegendNANA
14:00 Legend Double Dagger 0.0 -5.3 67 13 45 16.1 100.15   -8 LegendNANA
15:00 Legend Double Dagger 0.2 -4.3 72 13 39 16.1 100.03     LegendNANA
16:00 Legend Double Dagger 0.4 -4.1 72 13 45 16.1 99.93     Rain
17:00 Legend Double Dagger -0.1 -3.0 81 13 46 6.4 99.84   -8 Snow
18:00 Legend Double Dagger -0.5 -2.1 89 13 45 2.8 99.82   -8 Snow
19:00 Legend Double Dagger -0.8 -1.9 92 12 45 6.4 99.73   -9 Snow
20:00 Legend Double Dagger -0.7 -1.6 94 12 52 4.8 99.66   -9 Snow
21:00 Legend Double Dagger -0.7 -1.4 95 12 52 2.4 99.60   -9 Snow
22:00 Legend Double Dagger -0.6 -1.2 96 12 52 3.6 99.48   -9 Snow
23:00 Legend Double Dagger -0.3 -1.1 94 12 54 4.0 99.46   -9 Snow

Notes on Data Quality.

Legend

  • E = Estimated
  • M = Missing
  • NA = Not Available
  • ‡ = Partner data that is not subject to review by the National Climate Archives
Date modified: